This demonstration page uses our WeatherBlox Daily Observations layout. Learn more.

Left ArrowRight Arrow

41.86663, -103.66717

Hourly Observations for March 5, 2017

Temp ( °F °C ) Dew Point ( °F °C ) Humidity (%) Winds ( mph kmh ) Pressure ( in mb ) Visibility ( mi km ) Precip ( " mm )
12:53 am 00:53 Clear 29 -1.7 24 -4.4 82 82 NNW 7 11 29.84 1010 10 16 0.00 0.00
1:53 am 01:53 Clear 29 -1.7 23 -5 78 78 WNW 8 13 29.82 1010 10 16 0.00 0.00
2:53 am 02:53 Clear 27 -2.8 24 -4.4 89 89 NW 6 9 29.80 1009 10 16 0.00 0.00
3:53 am 03:53 Clear 27 -2.8 23 -5 85 85 NNW 5 7 29.79 1009 10 16 0.00 0.00
4:53 am 04:53 Clear 26 -3.3 21 -6.1 81 81 N 8 13 29.79 1009 10 16 0.00 0.00
5:53 am 05:53 Clear 27 -2.8 22 -5.6 81 81 ENE 3 6 29.81 1009 10 16 0.00 0.00
6:53 am 06:53 Sunny 30 -1.1 24 -4.4 79 79 E 5 7 29.80 1009 10 16 0.00 0.00
7:53 am 07:53 Sunny 33 0.6 27 -2.8 78 78 E 3 6 29.81 1010 10 16 0.00 0.00
8:53 am 08:53 Sunny 37 2.8 30 -1.1 76 76 E 8 13 29.80 1009 10 16 0.00 0.00
9:53 am 09:53 Sunny 43 6.1 29 -1.7 58 58 ESE 9 15 29.76 1008 10 16 0.00 0.00
10:53 am 10:53 Sunny 49 9.4 29 -1.7 46 46 E 8 13 29.73 1007 10 16 0.00 0.00
11:53 am 11:53 Sunny 58 14.4 31 -0.6 36 36 ESE 10 17 29.67 1005 10 16 0.00 0.00
12:53 pm 12:53 Sunny 67 19.4 22 -5.6 18 18 SSE 15 24 29.60 1002 10 16 0.00 0.00
1:53 pm 13:53 Sunny 63 17.2 26 -3.3 25 25 SSE 7 11 29.57 1001 10 16 0.00 0.00
2:53 pm 14:53 Partly Cloudy 63 17.2 23 -5 22 22 ESE 7 11 29.55 1001 10 16 0.00 0.00
3:53 pm 15:53 Sunny 61 16.1 24 -4.4 24 24 SE 9 15 29.54 1000 10 16 0.00 0.00
4:53 pm 16:53 Sunny 57 13.9 27 -2.8 32 32 Calm 29.52 1000 10 16 0.00 0.00
5:53 pm 17:53 Clear 50 10 31 -0.6 48 48 E 7 11 29.52 1000 10 16 0.00 0.00
6:53 pm 18:53 Clear 47 8.3 31 -0.6 54 54 E 8 13 29.49 999 10 16 0.00 0.00
7:53 pm 19:53 Clear 45 7.2 31 -0.6 58 58 E 7 11 29.46 998 10 16 0.00 0.00
8:53 pm 20:53 Clear 44 6.7 29 -1.7 55 55 E 10 17 29.40 996 10 16 0.00 0.00
9:53 pm 21:53 Clear 40 4.4 28 -2.2 63 63 ESE 8 13 29.35 994 10 16 0.00 0.00
10:53 pm 22:53 Clear 39 3.9 27 -2.8 62 62 SE 10 17 29.29 992 10 16 0.00 0.00
11:53 pm 23:53 Clear 34 1.1 27 -2.8 76 76 ENE 6 9 29.26 991 10 16 0.00 0.00

Powered by AerisWeather